Terminal Aerodrome Forecast
Issued by NWS

Current Version | Previous Version | Text Only | Print | Product List | Glossary Off
Versions: 1 2 3 4 5 6 7 8 9 10 11 12 13 14 15 16 17 18 19 20 21 22 23 24 25 26

000
FTUS41 KRLX 132200 AAA
TAFCKB
TAF AMD
KCKB 132204Z 1322/1418 31008KT P6SM SCT035 BKN050
     FM140200 35004KT P6SM SCT050
     FM140700 00000KT 5SM BR SKC
     FM141000 00000KT 1SM BR SCT001
     FM141300 00000KT 3SM BR FEW002
     FM141400 00000KT P6SM FEW040=

USA.gov is the U.S. government's official web portal to all federal, state and local government web resources and services.